[[{"header":{"parameterUnit":"m.s-1","parameterCategory":2,"la1":30.2991,"la2":30.254,"lo1":-89.0895,"lo2":-89.0444,"dy":0.0017,"dx":0.0017,"nx":28,"ny":28,"refTime":"2023-08-02T09:00:00:Z","depth":"0","parameterNumber":2,"parameterNumberName":"U-component_of_CURRENTS"},"data":[0,0,0,0,0,0,0,0,0,0,0,0,0,0,0,0,0,0,0,0,0,0,0,0,0,0,0,0,0,0,0,0,0,0,0,0,0,0,0,0,0,0,0,0,0,0,0,0,0,0,0,0,0,0,0,0,0,0,0.2903,0.2902,0,0.2833,0.2832,0.2831,0.2768,0.2767,0.2766,0.2766,0.2709,0.2708,0.2707,0,0,0,0,0,0,0,0,0,0,0,0,0,0.3029,0.3027,0.2903,0.2902,0.2901,0.2833,0.2832,0.2831,0.2768,0.2767,0.2766,0.2766,0.2709,0.2708,0.2707,0,0,0,0,0,0,0,0,0,0,0,0,0,0.2966,0.3026,0.2903,0.2863,0.2859,0.2833,0.2832,0.283,0.2768,0.2767,0.2766,0.2765,0.271,0.2708,0.2707,0.2716,0,0,0.2702,0.2702,0,0,0,0,0,0,0,0,0.297,0.2962,0.287,0.2866,0.2861,0.281,0.2856,0.2793,0.2768,0.2801,0.2766,0.2765,0.2746,0.2741,0.2727,0.2713,0.2711,0.2702,0.2701,0.2701,0.27,0,0,0,0,0,0,0,0.2974,0.2965,0.2873,0.2869,0.2864,0.2865,0.2854,0.2843,0.2778,0.2798,0.2793,0.2789,0.2743,0.2729,0.2726,0.271,0.2702,0.2701,0.27,0.27,0.2759,0.2761,0,0,0,0,0,0,0.2985,0.2968,0.2876,0.2871,0.2916,0.2863,0.2851,0.2826,0.2778,0.277,0.279,0.2786,0.2732,0.2727,0.2723,0.2809,0.2701,0.2699,0.2699,0.2756,0.2759,0.2762,0,0,0,0,0,0,0.2987,0.2976,0.2878,0.2921,0.2909,0.2862,0.2834,0.2825,0.2814,0.2772,0.2763,0.2788,0.2731,0.2725,0.2728,0.2803,0.2699,0.2698,0.2753,0.2757,0.2761,0.2929,0,0,0,0,0,0,0.2991,0.2977,0.2979,0.2921,0.2907,0.2877,0.2834,0.2824,0.2813,0.2808,0.2768,0.2761,0.273,0.2731,0.2727,0.2799,0.2696,0.275,0.2755,0.2759,0.2921,0.2938,0.2953,0,0,0,0,0,0.2995,0.3002,0.2979,0.2969,0.2905,0.2878,0.2872,0.2834,0.2814,0.2819,0.2795,0.2763,0.2757,0.2731,0.2726,0.28,0.2748,0.2754,0.2759,0.2913,0.2935,0.2953,0,0,0,0,0,0,0.3063,0.2995,0.2968,0.2954,0.2925,0.2868,0.2877,0.2845,0.2828,0.283,0.2781,0.2774,0.2816,0.2774,0.2746,0.2829,0.2753,0.2758,0.2872,0.2892,0.2908,0.2991,0.2695,0,0,0,0,0,0.3077,0.306,0.3001,0.2994,0.2982,0.2931,0.2921,0.2894,0.2865,0.2855,0.2828,0.2815,0.2835,0.2833,0.2832,0.2863,0.2897,0.2909,0.2926,0.294,0.3004,0.3155,0.3193,0.278,0.278,0.278,0,0,0.31,0.3065,0.3053,0.3008,0.2981,0.2994,0.2923,0.2915,0.2949,0.2855,0.2895,0.2872,0.2856,0.2905,0.292,0.2877,0.3058,0.2947,0.296,0.3017,0.3165,0.3206,0.3243,0.2784,0.2783,0.2782,0,0,0.3138,0.3106,0.3103,0.3094,0.3065,0.3048,0.3051,0.3004,0.3009,0.3034,0.2998,0.3031,0.3012,0.3045,0.3056,0.3163,0.3147,0.3136,0.3283,0.3428,0.3466,0.3499,0.353,0.3565,0.3137,0.3138,0.3138,0,0.3168,0.316,0.3105,0.3117,0.3137,0.3081,0.3115,0.3121,0.3089,0.3119,0.3073,0.3131,0.311,0.322,0.326,0.3212,0.3245,0.3208,0.3457,0.3491,0.3523,0.3547,0.3584,0.3146,0.3145,0.3145,0.3144,0,0.3199,0.3217,0.3226,0.3227,0.3244,0.3265,0.3268,0.3296,0.3297,0.3299,0.339,0.3374,0.3415,0.3412,0.3375,0.3572,0.3502,0.347,0.342,0.3576,0.3588,0.3624,0.3159,0.3156,0.3153,0.3151,0,0,0.3195,0.3237,0.3241,0.3285,0.3311,0.3326,0.3418,0.3478,0.355,0.3557,0.3663,0.3723,0.3704,0.3719,0.3677,0.3801,0.402,0.3739,0.3742,0.3792,0.4278,0.4036,0.4049,0.4038,0.4047,0.4054,0.4174,0,0.3237,0.3305,0.3315,0.3417,0.3466,0.3491,0.3581,0.364,0.3685,0.3768,0.3812,0.3879,0.3821,0.3841,0.3974,0.4012,0.4132,0.3987,0.4102,0.4105,0.3893,0.4091,0.3767,0.3833,0.4208,0.4214,0.4218,0,0.3255,0.3315,0.3417,0.354,0.356,0.3621,0.3769,0.3835,0.3951,0.3985,0.4081,0.408,0.4242,0.4168,0.4397,0.4302,0.4336,0.4361,0.4365,0.4127,0.3934,0.375,0.3883,0.3723,0.4272,0.4268,0.4264,0,0.3286,0.3385,0.3483,0.3522,0.3646,0.3719,0.3785,0.3903,0.3974,0.412,0.4174,0.4339,0.4397,0.4549,0.4567,0.4521,0.4789,0.4716,0.4529,0.4506,0.425,0.419,0.4273,0.4941,0.494,0.494,0.494,0,0.3328,0.3403,0.3507,0.3568,0.371,0.3765,0.3909,0.3995,0.4108,0.42,0.4276,0.437,0.4513,0.4625,0.4674,0.4694,0.4881,0.4623,0.4573,0.4281,0.4226,0.4085,0.4062,0.4944,0.4943,0.4943,0.4942,0,0.3348,0.3401,0.3541,0.3689,0.373,0.3834,0.3957,0.4044,0.4141,0.4269,0.4315,0.4445,0.4574,0.465,0.4846,0.4769,0.4678,0.4797,0.4374,0.4273,0.3895,0.3891,0.3874,0.3793,0.4636,0.4631,0.4628,0,0.3358,0.3437,0.3627,0.3702,0.377,0.3898,0.3971,0.4069,0.4138,0.43,0.4354,0.4485,0.4558,0.4682,0.4588,0.4603,0.4528,0.4274,0.4152,0.3892,0.3857,0.3761,0.369,0.3854,0.3844,0.3836,0.3829,0,0.3433,0.3509,0.3637,0.3785,0.3879,0.3963,0.4057,0.41,0.4199,0.4257,0.4338,0.4411,0.4441,0.4271,0.4213,0.4184,0.4003,0.4102,0.4009,0.3426,0.3167,0.3049,0.3685,0.3758,0.3765,0.377,0.3774,0.3777,0.3502,0.3609,0.3764,0.3885,0.3967,0.3993,0.3987,0.4035,0.4072,0.4052,0.4221,0.4145,0.3961,0.3812,0.3768,0.333,0.3522,0.3138,0.3204,0.3167,0.2958,0.3376,0.3274,0.3278,0.3282,0.3285,0.3288,0,0.3596,0.3694,0.3828,0.3943,0.3966,0.3999,0.4004,0.3898,0.3826,0.3825,0.3811,0.3488,0.3245,0.3065,0.2617,0.2438,0.2391,0.2362,0.2201,0.2223,0.2726,0.2552,0.2075,0.2075,0.2076,0.2076,0.2076,0.2076,0.365,0.38,0.3852,0.3898,0.3921,0.3815,0.3755,0.3573,0.347,0.3154,0.2895,0.2841,0.2614,0.2209,0.1844,0.1797,0.1739,0.1568,0.1769,0.2111,0.2188,0.2263,0.2094,0.1529,0.1529,0.1065,0.1062,0.1059]},{"header":{"parameterUnit":"m.s-1","parameterCategory":2,"la1":30.2991,"la2":30.254,"lo1":-89.0895,"lo2":-89.0444,"dy":0.0017,"dx":0.0017,"nx":28,"ny":28,"refTime":"2023-08-02T09:00:00:Z","depth":"0","parameterNumber":3,"parameterNumberName":"V-component_of_CURRENTS"},"data":[0,0,0,0,0,0,0,0,0,0,0,0,0,0,0,0,0,0,0,0,0,0,0,0,0,0,0,0,0,0,0,0,0,0,0,0,0,0,0,0,0,0,0,0,0,0,0,0,0,0,0,0,0,0,0,0,0,0,0.0223,0.0223,0,0.0216,0.0216,0.0216,0.0198,0.0197,0.0197,0.0197,0.0171,0.017,0.017,0,0,0,0,0,0,0,0,0,0,0,0,0,0.0211,0.0212,0.0223,0.0223,0.0223,0.0216,0.0216,0.0215,0.0198,0.0197,0.0197,0.0197,0.0171,0.017,0.017,0,0,0,0,0,0,0,0,0,0,0,0,0,0.0211,0.0212,0.0223,0.0214,0.0213,0.0216,0.0216,0.0215,0.0198,0.0197,0.0197,0.0196,0.0171,0.017,0.017,0.0174,0,0,0.0168,0.0167,0,0,0,0,0,0,0,0,0.0211,0.0211,0.0215,0.0215,0.0214,0.0208,0.0202,0.0201,0.0198,0.0203,0.0197,0.0196,0.0182,0.0181,0.0179,0.0173,0.0172,0.0168,0.0167,0.0167,0.0167,0,0,0,0,0,0,0,0.0211,0.0211,0.0219,0.0215,0.0214,0.0207,0.0206,0.0202,0.0194,0.0202,0.0201,0.0202,0.0181,0.018,0.0178,0.0172,0.0168,0.0167,0.0167,0.0166,0.0195,0.0196,0,0,0,0,0,0,0.0215,0.0211,0.022,0.0219,0.0212,0.0208,0.0207,0.021,0.0194,0.0192,0.0202,0.0201,0.0181,0.0179,0.0177,0.0195,0.0167,0.0166,0.0166,0.0194,0.0195,0.0197,0,0,0,0,0,0,0.0214,0.0216,0.022,0.0216,0.0216,0.0208,0.0211,0.021,0.021,0.0195,0.0192,0.0205,0.0181,0.0178,0.0183,0.0193,0.0166,0.0165,0.0193,0.0194,0.0196,0.0222,0,0,0,0,0,0,0.0214,0.0216,0.0218,0.0216,0.0216,0.0231,0.0212,0.021,0.0211,0.021,0.0196,0.0193,0.018,0.0185,0.0183,0.0192,0.0165,0.0191,0.0193,0.0195,0.022,0.0224,0.0228,0,0,0,0,0,0.0214,0.0223,0.0218,0.0219,0.022,0.0232,0.0231,0.0223,0.0212,0.022,0.0211,0.0193,0.0197,0.0185,0.0183,0.0192,0.019,0.0193,0.0195,0.0218,0.0223,0.0228,0,0,0,0,0,0,0.0216,0.0223,0.0216,0.0226,0.0231,0.0229,0.0234,0.0228,0.0227,0.0224,0.0205,0.0202,0.0213,0.0203,0.019,0.0209,0.0192,0.0194,0.021,0.0215,0.0219,0.0244,0.0164,0,0,0,0,0,0.0219,0.023,0.0232,0.024,0.0243,0.0238,0.0241,0.0239,0.0238,0.0236,0.0226,0.0221,0.0222,0.0219,0.0221,0.0226,0.0263,0.0233,0.0238,0.0241,0.0262,0.0361,0.0377,0.0205,0.0205,0.0205,0,0,0.0221,0.0227,0.0232,0.0242,0.0243,0.0255,0.0239,0.025,0.0258,0.0234,0.0241,0.0237,0.023,0.024,0.0244,0.023,0.0302,0.0245,0.0247,0.0267,0.0366,0.0383,0.0398,0.0207,0.0206,0.0206,0,0,0.0241,0.0239,0.0256,0.0264,0.0273,0.0272,0.0277,0.0279,0.0278,0.0288,0.0274,0.0283,0.0276,0.0278,0.0276,0.0308,0.0327,0.0302,0.0337,0.0433,0.0448,0.0463,0.0499,0.0517,0.0299,0.0299,0.0299,0,0.0241,0.0259,0.0263,0.0282,0.0283,0.0281,0.0293,0.03,0.0303,0.0311,0.0297,0.0322,0.03,0.0329,0.033,0.0318,0.0365,0.0312,0.0441,0.0456,0.047,0.0504,0.0523,0.0301,0.03,0.03,0.03,0,0.0274,0.0285,0.0296,0.0315,0.0322,0.0332,0.0339,0.0349,0.0344,0.0354,0.0387,0.0379,0.0401,0.0384,0.0358,0.0437,0.0433,0.044,0.0429,0.0489,0.052,0.054,0.0303,0.0302,0.0302,0.0301,0,0,0.0269,0.0309,0.031,0.0318,0.0333,0.0342,0.0362,0.0381,0.0417,0.0423,0.0482,0.0461,0.0478,0.0479,0.0462,0.0519,0.0622,0.0519,0.0524,0.0557,0.0814,0.0714,0.0724,0.0669,0.0673,0.0676,0.0783,0,0.0282,0.0318,0.0334,0.0355,0.0364,0.0371,0.0397,0.042,0.0449,0.0514,0.0525,0.0577,0.051,0.0537,0.0586,0.0644,0.0682,0.0591,0.075,0.0753,0.066,0.0747,0.0712,0.0798,0.0802,0.0805,0.0808,0,0.03,0.0315,0.034,0.037,0.0376,0.0394,0.0436,0.0466,0.0552,0.0587,0.0651,0.0687,0.0761,0.0711,0.0835,0.0792,0.0799,0.0823,0.0828,0.0747,0.0691,0.0746,0.0833,0.0755,0.0838,0.0835,0.0833,0,0.0281,0.0316,0.033,0.0337,0.0378,0.039,0.0414,0.0483,0.0549,0.0659,0.0753,0.0828,0.0919,0.0966,0.0983,0.0944,0.1132,0.1086,0.0986,0.0977,0.0983,0.0967,0.1021,0.1169,0.1169,0.1169,0.1169,0,0.0282,0.0293,0.0323,0.033,0.0367,0.0387,0.0466,0.0506,0.0631,0.0763,0.0803,0.0946,0.1004,0.1103,0.1075,0.1102,0.1208,0.1019,0.1021,0.0982,0.0966,0.0924,0.0887,0.1173,0.1172,0.1171,0.1171,0,0.0276,0.0292,0.0315,0.0346,0.0365,0.0392,0.051,0.0599,0.0689,0.0881,0.0936,0.1097,0.1226,0.1231,0.1332,0.1232,0.1203,0.1209,0.1118,0.1105,0.0889,0.0855,0.0927,0.0911,0.1132,0.1131,0.113,0,0.0286,0.0293,0.0331,0.0373,0.0393,0.0454,0.0535,0.0622,0.0746,0.0985,0.1107,0.1268,0.1423,0.1488,0.1358,0.129,0.1207,0.1143,0.1034,0.0894,0.0862,0.083,0.081,0.1048,0.1046,0.1045,0.1044,0,0.031,0.0318,0.0346,0.0427,0.0497,0.059,0.0705,0.0814,0.0969,0.1142,0.1393,0.1531,0.1567,0.1522,0.1361,0.1275,0.1077,0.1103,0.104,0.0867,0.0769,0.0747,0.0912,0.103,0.1032,0.1033,0.1033,0.1034,0.0345,0.0376,0.0431,0.0504,0.0597,0.0734,0.0841,0.1002,0.121,0.149,0.1588,0.181,0.1642,0.1443,0.1306,0.095,0.0992,0.0825,0.0816,0.0811,0.0739,0.0818,0.0876,0.0877,0.0877,0.0877,0.0878,0,0.0408,0.0451,0.0526,0.0628,0.0752,0.0778,0.0981,0.1115,0.1374,0.1621,0.1834,0.1844,0.1652,0.1384,0.0905,0.0703,0.0657,0.0607,0.0593,0.0603,0.0758,0.0691,0.0615,0.0615,0.0615,0.0615,0.0615,0.0615,0.0458,0.0533,0.0562,0.0751,0.0839,0.101,0.1132,0.1327,0.1524,0.1782,0.1896,0.1976,0.1721,0.1032,0.0597,0.0517,0.0445,0.0387,0.0388,0.0495,0.0516,0.0535,0.0464,0.0341,0.0341,0.0238,0.0237,0.0236]}],[{"header":{"parameterUnit":"m.s-1","parameterCategory":2,"la1":30.2991,"la2":30.254,"lo1":-89.0895,"lo2":-89.0444,"dy":0.0017,"dx":0.0017,"nx":28,"ny":28,"refTime":"2023-08-02T09:00:00:Z","depth":"2","parameterNumber":2,"parameterNumberName":"U-component_of_CURRENTS"},"data":[0,0,0,0,0,0,0,0,0,0,0,0,0,0,0,0,0,0,0,0,0,0,0,0,0,0,0,0,0,0,0,0,0,0,0,0,0,0,0,0,0,0,0,0,0,0,0,0,0,0,0,0,0,0,0,0,0,0,0.2069,0.207,0,0.2075,0.2074,0.2074,0.2062,0.2062,0.2062,0.2062,0.203,0.2029,0.2028,0,0,0,0,0,0,0,0,0,0,0,0,0,0.2127,0.2125,0.2069,0.207,0.207,0.2075,0.2074,0.2074,0.2062,0.2062,0.2062,0.2062,0.203,0.2029,0.2028,0,0,0,0,0,0,0,0,0,0,0,0,0,0.2109,0.2124,0.2069,0.2068,0.2068,0.2075,0.2074,0.2074,0.2062,0.2062,0.2062,0.2062,0.203,0.2029,0.2028,0.2019,0,0,0.2024,0.2023,0,0,0,0,0,0,0,0,0.211,0.2107,0.2068,0.2068,0.2069,0.2072,0.2083,0.2055,0.2062,0.206,0.2062,0.2062,0.2043,0.2041,0.2036,0.2017,0.2016,0.2023,0.2023,0.2022,0.2022,0,0,0,0,0,0,0,0.2111,0.2107,0.2067,0.2068,0.2069,0.2095,0.2091,0.2078,0.2047,0.206,0.206,0.2068,0.2042,0.2037,0.2035,0.2015,0.2023,0.2022,0.2021,0.2021,0.2047,0.2048,0,0,0,0,0,0,0.2115,0.2107,0.2067,0.2068,0.2095,0.2093,0.2089,0.2067,0.2048,0.2047,0.2068,0.2067,0.2039,0.2036,0.2034,0.2089,0.2022,0.2021,0.202,0.2045,0.2047,0.2049,0,0,0,0,0,0,0.2116,0.211,0.2067,0.2093,0.209,0.2092,0.2068,0.2067,0.208,0.2055,0.2052,0.2084,0.2039,0.2036,0.2043,0.2085,0.202,0.2019,0.2044,0.2046,0.2048,0.2157,0,0,0,0,0,0,0.2117,0.2109,0.2108,0.2092,0.2089,0.2089,0.2068,0.2067,0.2086,0.2086,0.2068,0.2064,0.2039,0.2046,0.2042,0.2082,0.2018,0.2042,0.2045,0.2047,0.2151,0.2162,0.2172,0,0,0,0,0,0.2118,0.2115,0.2107,0.2104,0.2081,0.2091,0.2091,0.2091,0.2087,0.2101,0.209,0.2065,0.2061,0.2046,0.2041,0.2082,0.204,0.2044,0.2047,0.2147,0.216,0.2172,0,0,0,0,0,0,0.2136,0.2113,0.2105,0.2092,0.2101,0.2091,0.2111,0.2105,0.2107,0.2112,0.2079,0.2075,0.2101,0.2073,0.2057,0.2097,0.2049,0.2051,0.2126,0.2138,0.2149,0.2168,0.2017,0,0,0,0,0,0.214,0.2131,0.2121,0.2116,0.2125,0.2121,0.213,0.2129,0.2126,0.2127,0.2113,0.2104,0.2108,0.2109,0.2101,0.2118,0.2147,0.2142,0.2153,0.2162,0.2174,0.2291,0.2315,0.206,0.206,0.206,0,0,0.2146,0.2135,0.213,0.2122,0.2128,0.2135,0.2126,0.2149,0.215,0.2123,0.213,0.214,0.2121,0.2146,0.2155,0.213,0.2244,0.2166,0.2174,0.2182,0.2298,0.2323,0.2345,0.2062,0.2062,0.2061,0,0,0.2155,0.2147,0.2145,0.2146,0.2162,0.217,0.2182,0.2185,0.2187,0.2209,0.219,0.2232,0.2221,0.2227,0.2226,0.2288,0.2298,0.2282,0.235,0.2464,0.2487,0.2508,0.2563,0.2588,0.2286,0.2286,0.2286,0,0.2169,0.2153,0.2153,0.2148,0.2169,0.2186,0.2205,0.22,0.2203,0.2238,0.2228,0.2287,0.2267,0.2316,0.2335,0.2315,0.2365,0.2306,0.2483,0.2503,0.2523,0.2574,0.26,0.2292,0.2291,0.229,0.229,0,0.2159,0.216,0.2168,0.2166,0.2191,0.2217,0.2222,0.225,0.2283,0.2305,0.2384,0.2382,0.2428,0.2429,0.2398,0.2513,0.2499,0.2489,0.2459,0.2556,0.2602,0.2628,0.23,0.2298,0.2296,0.2295,0,0,0.2174,0.2165,0.2173,0.2174,0.2212,0.2223,0.2264,0.2328,0.2371,0.2415,0.2497,0.2527,0.2569,0.2569,0.2552,0.2637,0.28,0.2624,0.2628,0.2692,0.3035,0.2828,0.2834,0.2843,0.2848,0.2852,0.3009,0,0.2185,0.2174,0.219,0.2214,0.222,0.2269,0.2299,0.2356,0.243,0.2502,0.2567,0.2637,0.2602,0.2651,0.2732,0.2785,0.2874,0.2756,0.2919,0.2922,0.274,0.286,0.2589,0.269,0.3033,0.3037,0.304,0,0.2193,0.2179,0.2203,0.2232,0.2247,0.228,0.2391,0.2412,0.2529,0.2596,0.2715,0.2761,0.2876,0.2839,0.3019,0.2956,0.3008,0.3049,0.3057,0.2844,0.2763,0.265,0.2723,0.3082,0.3079,0.3076,0.3073,0,0.2199,0.2209,0.2237,0.2236,0.2262,0.232,0.2367,0.2476,0.2538,0.2681,0.2787,0.2908,0.3007,0.311,0.3167,0.3137,0.3358,0.3326,0.3189,0.3173,0.2959,0.2914,0.3486,0.3486,0.3485,0.3485,0.3484,0,0.2201,0.2208,0.2239,0.223,0.2295,0.2318,0.2431,0.2493,0.2624,0.2726,0.2837,0.2952,0.3099,0.3217,0.3244,0.3277,0.3433,0.3225,0.3219,0.2981,0.2938,0.3281,0.3256,0.3491,0.3489,0.3488,0.3487,0,0.2178,0.2192,0.2214,0.2261,0.2297,0.2339,0.2475,0.2537,0.2666,0.2811,0.2879,0.3068,0.3215,0.3295,0.3465,0.3373,0.342,0.339,0.3057,0.3005,0.3141,0.3119,0.3281,0.3275,0.3271,0.3267,0.3263,0,0.2152,0.216,0.2246,0.2283,0.2314,0.2392,0.2457,0.2569,0.2631,0.2864,0.2917,0.3137,0.3195,0.3315,0.3267,0.3263,0.3377,0.297,0.2842,0.3152,0.3132,0.3117,0.3101,0.2617,0.2608,0.2602,0.2596,0,0.2094,0.2156,0.2176,0.2286,0.236,0.2404,0.2489,0.2549,0.2669,0.2778,0.2894,0.2968,0.3077,0.2937,0.2917,0.2879,0.2933,0.2823,0.3323,0.2665,0.2526,0.2504,0.2512,0.2535,0.2541,0.2546,0.2549,0.2552,0.2078,0.2119,0.2202,0.2281,0.236,0.2384,0.2394,0.2455,0.252,0.2577,0.27,0.2676,0.2692,0.2512,0.2425,0.2375,0.2588,0.2436,0.2459,0.2489,0.2338,0.2194,0.2112,0.2116,0.2119,0.2122,0.2124,0,0.2056,0.212,0.2189,0.2251,0.2261,0.2357,0.2387,0.2338,0.2344,0.2349,0.2341,0.2077,0.196,0.2032,0.1839,0.177,0.1787,0.1698,0.1714,0.1774,0.1828,0.1646,0.1236,0.1234,0.1231,0.1229,0,0,0.2055,0.2085,0.2114,0.2109,0.218,0.2176,0.2176,0.2108,0.2062,0.1909,0.1814,0.1841,0.1926,0.1552,0.1482,0.1338,0.1554,0.1275,0.1988,0.2068,0.2119,0.2249,0.2033,0,0,0,0,0]},{"header":{"parameterUnit":"m.s-1","parameterCategory":2,"la1":30.2991,"la2":30.254,"lo1":-89.0895,"lo2":-89.0444,"dy":0.0017,"dx":0.0017,"nx":28,"ny":28,"refTime":"2023-08-02T09:00:00:Z","depth":"2","parameterNumber":3,"parameterNumberName":"V-component_of_CURRENTS"},"data":[0,0,0,0,0,0,0,0,0,0,0,0,0,0,0,0,0,0,0,0,0,0,0,0,0,0,0,0,0,0,0,0,0,0,0,0,0,0,0,0,0,0,0,0,0,0,0,0,0,0,0,0,0,0,0,0,0,0,0.0025,0.0025,0,0.0019,0.0019,0.0019,0.0014,0.0014,0.0014,0.0014,-0.0004,-0.0005,-0.0005,0,0,0,0,0,0,0,0,0,0,0,0,0,0.0013,0.0013,0.0025,0.0025,0.0025,0.0019,0.0019,0.0019,0.0014,0.0014,0.0014,0.0014,-0.0004,-0.0005,-0.0005,0,0,0,0,0,0,0,0,0,0,0,0,0,0.0013,0.0013,0.0025,0.0023,0.0022,0.0019,0.0019,0.0019,0.0014,0.0014,0.0014,0.0014,-0.0004,-0.0005,-0.0005,-0.0011,0,0,-0.0008,-0.0008,0,0,0,0,0,0,0,0,0.0013,0.0014,0.0023,0.0023,0.0022,0.0018,0.0007,0.0008,0.0014,0.0017,0.0014,0.0014,0.0002,0.0001,-0.0001,-0.0012,-0.0012,-0.0008,-0.0008,-0.0009,-0.0009,0,0,0,0,0,0,0,0.0013,0.0014,0.0022,0.0023,0.0023,0.0015,0.0015,0.0008,0.0009,0.0017,0.0016,0.0016,0.0002,-0.0,-0.0001,-0.0013,-0.0008,-0.0009,-0.0009,-0.0009,-0.002,-0.002,0,0,0,0,0,0,0.0016,0.0014,0.0022,0.0022,0.0018,0.0015,0.0015,0.0019,0.0009,0.0008,0.0016,0.0016,0.0001,-0.0,-0.0002,-0.0003,-0.0009,-0.0009,-0.001,-0.0021,-0.002,-0.002,0,0,0,0,0,0,0.0016,0.0017,0.0023,0.0018,0.0018,0.0015,0.0019,0.0019,0.0019,0.0009,0.0008,0.0018,0.0001,-0.0001,-0.0003,-0.0004,-0.001,-0.001,-0.0021,-0.002,-0.002,-0.0008,0,0,0,0,0,0,0.0016,0.0017,0.0018,0.0018,0.0018,0.0027,0.0019,0.0019,0.0019,0.0019,0.001,0.0008,0.0001,-0.0002,-0.0004,-0.0005,-0.0011,-0.0021,-0.0021,-0.002,-0.0009,-0.0008,-0.0007,0,0,0,0,0,0.0015,0.0019,0.0018,0.0019,0.0021,0.0027,0.0027,0.0024,0.002,0.0024,0.0017,0.0009,-0.0001,-0.0002,-0.0005,-0.0006,-0.0021,-0.0021,-0.002,-0.001,-0.0008,-0.0007,0,0,0,0,0,0,0.001,0.0019,0.0018,0.0022,0.0027,0.0027,0.0027,0.0026,0.0023,0.0023,0.0011,0.0009,0.0007,0.0,-0.0001,-0.0008,-0.0013,-0.0013,-0.0004,-0.0003,-0.0001,-0.0001,-0.0012,0,0,0,0,0,0.001,0.0018,0.0022,0.0026,0.0029,0.0028,0.0029,0.0031,0.0029,0.0028,0.0021,0.0013,0.0006,0.0002,-0.0003,-0.0008,0.0012,-0.001,-0.0009,-0.0008,-0.0009,0.0043,0.005,-0.0019,-0.0019,-0.0019,0,0,0.0009,0.0014,0.0018,0.0026,0.0027,0.0032,0.0029,0.0035,0.0036,0.0026,0.0023,0.0017,0.0007,0.0003,0.0001,-0.0003,0.002,-0.0007,-0.0006,-0.0008,0.0045,0.0051,0.0058,-0.0019,-0.0019,-0.0019,0,0,0.0016,0.0016,0.0028,0.0032,0.004,0.0037,0.0041,0.0044,0.0043,0.0044,0.0034,0.003,0.002,0.0012,0.0006,0.001,0.0026,0.0007,0.001,0.0061,0.0068,0.0074,0.01,0.0108,0.0006,0.0006,0.0006,0,0.0015,0.0026,0.0031,0.0042,0.0042,0.004,0.0048,0.0047,0.0048,0.0055,0.0046,0.005,0.0024,0.0032,0.0015,0.0013,0.0041,0.0006,0.0065,0.0071,0.0077,0.0102,0.0111,0.0007,0.0007,0.0007,0.0006,0,0.0034,0.0039,0.0044,0.0055,0.0058,0.0063,0.0063,0.0068,0.0064,0.0068,0.0083,0.0066,0.0075,0.0056,0.0024,0.0048,0.0054,0.0064,0.0064,0.0085,0.0109,0.0118,0.0008,0.0007,0.0007,0.0007,0,0,0.0039,0.0055,0.0056,0.0066,0.0063,0.0074,0.0073,0.0083,0.0121,0.0102,0.0153,0.0095,0.0106,0.0098,0.008,0.0091,0.0126,0.0082,0.0085,0.0112,0.0233,0.0177,0.0182,0.0159,0.016,0.0162,0.0231,0,0.0049,0.007,0.0073,0.0088,0.0094,0.0094,0.0115,0.0126,0.0141,0.0194,0.0172,0.0204,0.0121,0.0141,0.0138,0.0154,0.0152,0.0105,0.0204,0.0206,0.0159,0.0191,0.0195,0.0252,0.0239,0.0241,0.0242,0,0.0064,0.0073,0.0085,0.0122,0.0131,0.0138,0.0185,0.0207,0.0261,0.0289,0.0307,0.0313,0.0311,0.0256,0.0274,0.0257,0.0226,0.0221,0.0225,0.0175,0.0168,0.023,0.0269,0.0257,0.0256,0.0255,0.0254,0,0.0064,0.0087,0.0095,0.0098,0.0136,0.0147,0.0171,0.0225,0.029,0.0347,0.0426,0.0427,0.0478,0.044,0.0383,0.0348,0.0428,0.0394,0.0308,0.0304,0.0324,0.0318,0.0394,0.0394,0.0394,0.0393,0.0393,0,0.0068,0.0083,0.0095,0.0099,0.0149,0.0165,0.0248,0.0282,0.0389,0.0521,0.0476,0.0598,0.053,0.0559,0.0465,0.0427,0.0496,0.0313,0.0324,0.0324,0.0318,0.0334,0.0326,0.0396,0.0395,0.0395,0.0395,0,0.0071,0.0077,0.0096,0.0124,0.0144,0.0176,0.0293,0.04,0.0463,0.0643,0.0669,0.0755,0.0792,0.0704,0.0686,0.056,0.0505,0.046,0.0441,0.0446,0.032,0.0312,0.0382,0.0381,0.038,0.0379,0.0378,0,0.0077,0.0078,0.0107,0.0154,0.0165,0.023,0.0333,0.0419,0.0572,0.0765,0.0903,0.095,0.1026,0.0947,0.0755,0.0589,0.055,0.0451,0.0348,0.0317,0.0322,0.0316,0.0309,0.0387,0.0386,0.0386,0.0385,0,0.0089,0.0091,0.0121,0.0209,0.0292,0.0416,0.0566,0.0684,0.0859,0.1006,0.1229,0.1266,0.1174,0.1023,0.0752,0.0627,0.0468,0.043,0.0475,0.0364,0.0321,0.0325,0.032,0.0381,0.0381,0.0382,0.0382,0.0382,0.0114,0.0148,0.0207,0.0308,0.0416,0.0616,0.074,0.0948,0.1172,0.1385,0.143,0.1451,0.1254,0.0889,0.0693,0.0449,0.045,0.0329,0.0333,0.0336,0.0299,0.0254,0.0294,0.0294,0.0294,0.0294,0.0294,0,0.017,0.0238,0.0332,0.0474,0.0645,0.0672,0.0937,0.108,0.1346,0.1468,0.1576,0.1339,0.1153,0.0911,0.0542,0.032,0.0306,0.0251,0.0284,0.029,0.0295,0.0256,0.024,0.0239,0.0238,0.0238,0,0,0.0215,0.0333,0.0402,0.0683,0.0782,0.0985,0.1131,0.1309,0.1427,0.1518,0.149,0.1436,0.1169,0.0886,0.0629,0.0433,0.0401,0.0386,0.045,0.0526,0.0533,0.036,0.0309,0,0,0,0,0]}],[{"header":{"parameterUnit":"m.s-1","parameterCategory":2,"la1":30.2991,"la2":30.254,"lo1":-89.0895,"lo2":-89.0444,"dy":0.0017,"dx":0.0017,"nx":28,"ny":28,"refTime":"2023-08-02T09:00:00:Z","depth":"4","parameterNumber":2,"parameterNumberName":"U-component_of_CURRENTS"},"data":[0,0,0,0,0,0,0,0,0,0,0,0,0,0,0,0,0,0,0,0,0,0,0,0,0,0,0,0,0,0,0,0,0,0,0,0,0,0,0,0,0,0,0,0,0,0,0,0,0,0,0,0,0,0,0,0,0,0,0.1,0.1,0,0.1022,0.1023,0.1023,0.1062,0.1062,0.1063,0.1064,0.1089,0.1089,0.1089,0,0,0,0,0,0,0,0,0,0,0,0,0,0.0963,0.0963,0.1,0.1,0.1,0.1022,0.1023,0.1023,0.1062,0.1062,0.1063,0.1064,0.1089,0.1089,0.1089,0,0,0,0,0,0,0,0,0,0,0,0,0,0.0982,0.0963,0.1,0.1021,0.1024,0.1022,0.1023,0.1023,0.1061,0.1062,0.1063,0.1064,0.1089,0.1089,0.1089,0.1069,0,0,0.1089,0.1089,0,0,0,0,0,0,0,0,0.0981,0.0983,0.1018,0.102,0.1022,0.104,0.1019,0.1039,0.1061,0.1048,0.1064,0.1065,0.1071,0.1073,0.1076,0.107,0.1071,0.1089,0.1089,0.1089,0.1089,0,0,0,0,0,0,0,0.0979,0.0982,0.1009,0.1018,0.1021,0.1021,0.1025,0.1023,0.1054,0.1049,0.1052,0.1053,0.1073,0.1076,0.1077,0.1072,0.1089,0.1089,0.1089,0.1089,0.1147,0.1149,0,0,0,0,0,0,0.0976,0.0981,0.1008,0.101,0.1003,0.1021,0.1026,0.1034,0.1054,0.1058,0.1052,0.1055,0.1075,0.1077,0.1078,0.1126,0.1089,0.1089,0.1089,0.1146,0.1147,0.1149,0,0,0,0,0,0,0.0975,0.0978,0.1008,0.0995,0.0999,0.1021,0.1029,0.1034,0.1064,0.1056,0.1061,0.1081,0.1076,0.1078,0.1102,0.1125,0.1089,0.1089,0.1144,0.1146,0.1148,0.1178,0,0,0,0,0,0,0.0974,0.0978,0.0994,0.0995,0.0999,0.1026,0.1028,0.1033,0.1061,0.1066,0.1082,0.1084,0.1077,0.1102,0.1102,0.1124,0.1089,0.1142,0.1145,0.1148,0.1175,0.1181,0.1186,0,0,0,0,0,0.0973,0.0977,0.0995,0.0999,0.1018,0.1026,0.103,0.1048,0.1062,0.1079,0.1093,0.1085,0.112,0.1102,0.1102,0.1125,0.1141,0.1144,0.1147,0.1173,0.118,0.1186,0,0,0,0,0,0,0.096,0.0982,0.1001,0.1012,0.1032,0.1033,0.1047,0.1062,0.1086,0.11,0.1095,0.1098,0.1131,0.1126,0.1107,0.1154,0.1133,0.1136,0.1152,0.1159,0.1164,0.1133,0.1089,0,0,0,0,0,0.0968,0.0986,0.1003,0.1015,0.1028,0.1046,0.1057,0.1075,0.1088,0.1102,0.111,0.1126,0.1139,0.1148,0.1158,0.1175,0.1196,0.1195,0.12,0.1204,0.1182,0.1274,0.1285,0.116,0.116,0.116,0,0,0.0965,0.098,0.099,0.1016,0.1033,0.1031,0.1057,0.1082,0.1078,0.1098,0.1108,0.1145,0.115,0.1175,0.1189,0.1176,0.1252,0.1209,0.1212,0.1186,0.1279,0.1291,0.1302,0.1162,0.1162,0.1162,0,0,0.0954,0.0986,0.0998,0.1005,0.1037,0.1046,0.106,0.1085,0.1101,0.1127,0.1139,0.1183,0.1207,0.1207,0.1211,0.1249,0.1281,0.1277,0.1273,0.1365,0.1376,0.1385,0.1429,0.1442,0.1277,0.1277,0.1277,0,0.0964,0.0958,0.1001,0.0999,0.0986,0.105,0.1033,0.1057,0.1088,0.11,0.1139,0.1207,0.1211,0.1229,0.1245,0.1257,0.1315,0.1246,0.1372,0.1382,0.1391,0.1433,0.1448,0.1279,0.1279,0.1279,0.1279,0,0.0938,0.094,0.0942,0.0956,0.0956,0.0958,0.0981,0.1011,0.1058,0.1088,0.1156,0.1201,0.1244,0.1265,0.1261,0.1328,0.1349,0.1373,0.1352,0.1406,0.1446,0.1461,0.1282,0.1281,0.1281,0.128,0,0,0.0941,0.0931,0.0931,0.0917,0.0926,0.0924,0.0924,0.0944,0.0977,0.1056,0.1109,0.1148,0.123,0.1238,0.1278,0.1344,0.1453,0.1391,0.1395,0.1426,0.1652,0.1493,0.1494,0.1534,0.1537,0.1539,0.1653,0,0.0913,0.086,0.0876,0.0839,0.0801,0.0843,0.0839,0.0872,0.0944,0.1028,0.1113,0.1201,0.1205,0.1282,0.1343,0.1429,0.1495,0.1418,0.16,0.1603,0.1451,0.1505,0.1547,0.1664,0.1667,0.167,0.1671,0,0.0872,0.083,0.0759,0.0749,0.0749,0.0763,0.0782,0.0811,0.0924,0.0983,0.1097,0.1208,0.1296,0.1343,0.1488,0.1459,0.1548,0.1616,0.1623,0.1465,0.147,0.1601,0.1697,0.1695,0.1693,0.1691,0.169,0,0.0784,0.0762,0.0691,0.0673,0.067,0.0688,0.074,0.081,0.0876,0.1013,0.1108,0.1223,0.1349,0.146,0.1567,0.1574,0.1747,0.1775,0.1707,0.1697,0.1792,0.1781,0.1902,0.1902,0.1902,0.1902,0.1901,0,0.0706,0.0665,0.0664,0.0622,0.0604,0.0648,0.0712,0.0761,0.0918,0.1014,0.1129,0.1232,0.1407,0.1529,0.16,0.1661,0.1772,0.1694,0.1718,0.1801,0.179,0.1802,0.1789,0.1906,0.1905,0.1904,0.1903,0,0.0593,0.0591,0.0523,0.0528,0.0557,0.0556,0.0728,0.0797,0.0925,0.1071,0.1139,0.1304,0.1428,0.155,0.1731,0.1698,0.1773,0.1778,0.182,0.1847,0.166,0.1647,0.1721,0.1716,0.1712,0.1709,0.1706,0,0.0534,0.0467,0.0445,0.0456,0.0481,0.0538,0.0603,0.0764,0.0861,0.1087,0.1154,0.1351,0.1435,0.1538,0.1642,0.1733,0.1737,0.1739,0.1713,0.1626,0.1644,0.1637,0.163,0.17,0.1699,0.1698,0.1697,0,0.0399,0.0387,0.0328,0.0344,0.0408,0.0471,0.0608,0.0673,0.087,0.1004,0.1159,0.1266,0.1394,0.1487,0.1555,0.162,0.1703,0.1699,0.1708,0.1685,0.1602,0.1622,0.1619,0.1684,0.1686,0.1687,0.1688,0,0.0323,0.0247,0.0214,0.0245,0.0319,0.0413,0.048,0.0633,0.0757,0.1021,0.1057,0.1234,0.1385,0.143,0.1484,0.1521,0.1534,0.1491,0.1511,0.1527,0.1405,0.1268,0.1263,0,0,0,0,0,0.0246,0.0179,0.0165,0.0188,0.0273,0.0342,0.0492,0.0576,0.0759,0.0845,0.0973,0.1085,0.1209,0.1283,0.1296,0.139,0.1514,0.1391,0.1466,0.1609,0.1624,0.1495,0,0,0,0,0,0,0.0193,0.0131,0.0112,0.0175,0.0209,0.0306,0.0397,0.051,0.0578,0.0763,0.0842,0.0988,0.1121,0.1198,0.1266,0.129,0.1307,0.1503,0.15,0.16,0.1614,0.1627,0.1499,0,0,0,0,0]},{"header":{"parameterUnit":"m.s-1","parameterCategory":2,"la1":30.2991,"la2":30.254,"lo1":-89.0895,"lo2":-89.0444,"dy":0.0017,"dx":0.0017,"nx":28,"ny":28,"refTime":"2023-08-02T09:00:00:Z","depth":"4","parameterNumber":3,"parameterNumberName":"V-component_of_CURRENTS"},"data":[0,0,0,0,0,0,0,0,0,0,0,0,0,0,0,0,0,0,0,0,0,0,0,0,0,0,0,0,0,0,0,0,0,0,0,0,0,0,0,0,0,0,0,0,0,0,0,0,0,0,0,0,0,0,0,0,0,0,0.0033,0.0033,0,0.0027,0.0027,0.0027,0.0033,0.0033,0.0033,0.0034,0.0023,0.0023,0.0022,0,0,0,0,0,0,0,0,0,0,0,0,0,0.0027,0.0027,0.0033,0.0033,0.0033,0.0027,0.0027,0.0027,0.0033,0.0033,0.0033,0.0034,0.0023,0.0023,0.0022,0,0,0,0,0,0,0,0,0,0,0,0,0,0.0026,0.0027,0.0033,0.0035,0.0035,0.0027,0.0027,0.0027,0.0033,0.0033,0.0033,0.0034,0.0024,0.0023,0.0022,0.0012,0,0,0.002,0.002,0,0,0,0,0,0,0,0,0.0026,0.0027,0.0035,0.0035,0.0035,0.0031,0.0021,0.0021,0.0033,0.0034,0.0034,0.0034,0.0025,0.0024,0.0023,0.0011,0.0011,0.002,0.002,0.0019,0.0019,0,0,0,0,0,0,0,0.0026,0.0027,0.0031,0.0035,0.0035,0.0028,0.0029,0.0021,0.0028,0.0034,0.0034,0.0033,0.0025,0.0024,0.0023,0.0011,0.002,0.0019,0.0019,0.0019,-0.0004,-0.0005,0,0,0,0,0,0,0.0027,0.0027,0.0031,0.0031,0.0031,0.0028,0.0029,0.0032,0.0028,0.0028,0.0033,0.0033,0.0025,0.0023,0.0022,0.0028,0.0019,0.0019,0.0018,-0.0004,-0.0004,-0.0005,0,0,0,0,0,0,0.0027,0.0028,0.0031,0.0028,0.0028,0.0028,0.0032,0.0032,0.0032,0.0027,0.0027,0.0033,0.0025,0.0023,0.0017,0.0027,0.0018,0.0018,-0.0004,-0.0004,-0.0005,0.0028,0,0,0,0,0,0,0.0027,0.0028,0.0029,0.0028,0.0028,0.0029,0.0031,0.0031,0.0031,0.0031,0.0027,0.0027,0.0025,0.0018,0.0016,0.0026,0.0017,-0.0004,-0.0004,-0.0004,0.0027,0.0029,0.0031,0,0,0,0,0,0.0027,0.0029,0.0029,0.0029,0.003,0.0029,0.0028,0.0029,0.003,0.0031,0.0028,0.0027,0.0015,0.0017,0.0015,0.0025,-0.0004,-0.0004,-0.0004,0.0027,0.0029,0.003,0,0,0,0,0,0,0.0027,0.003,0.003,0.0033,0.0031,0.003,0.0028,0.0029,0.0026,0.0028,0.0024,0.0023,0.002,0.0013,0.0016,0.0015,0.0006,0.0005,0.003,0.0032,0.0033,0.007,0.0017,0,0,0,0,0,0.0027,0.003,0.0029,0.0031,0.003,0.0029,0.0027,0.003,0.0028,0.0027,0.0023,0.0018,0.0015,0.0016,0.0008,0.0008,-0.0008,0.0012,0.0013,0.0015,0.0042,-0.0,0.0,-0.0006,-0.0006,-0.0006,0,0,0.0027,0.0029,0.003,0.0031,0.0029,0.0044,0.0029,0.003,0.0051,0.0026,0.0043,0.002,0.0014,0.0016,0.0014,0.0014,0.0007,0.0014,0.0016,0.0043,-0.0,0.0,0.0001,-0.0006,-0.0006,-0.0006,0,0,0.0036,0.003,0.0039,0.0043,0.0044,0.0048,0.0049,0.0047,0.0054,0.0059,0.0048,0.0035,0.0027,0.003,0.0031,0.0035,0.0011,0.0023,0.0069,0.0027,0.0028,0.0028,0.0005,0.0003,0.003,0.003,0.003,0,0.0036,0.0058,0.004,0.0056,0.0076,0.0055,0.0086,0.0084,0.0082,0.0095,0.007,0.0058,0.0043,0.0062,0.0064,0.0043,0.0015,0.0064,0.0031,0.0031,0.003,0.0006,0.0004,0.0031,0.0031,0.0031,0.0031,0,0.0059,0.0081,0.0087,0.011,0.0122,0.0141,0.0147,0.0152,0.015,0.0149,0.0149,0.0114,0.0113,0.0095,0.0086,0.0084,0.0063,0.0031,0.0029,0.0033,0.0007,0.0004,0.0033,0.0033,0.0032,0.0032,0,0,0.0059,0.0099,0.0104,0.0145,0.0162,0.0183,0.0212,0.0243,0.0263,0.0237,0.0259,0.0238,0.0202,0.02,0.0166,0.0134,0.01,0.0089,0.0086,0.0075,0.0015,0.0027,0.0024,0.0051,0.0051,0.005,-0.0004,0,0.0092,0.0154,0.0163,0.0235,0.0277,0.0283,0.0316,0.0334,0.0326,0.0328,0.0293,0.0287,0.0246,0.0232,0.0195,0.0117,0.0094,0.0119,0.0007,0.0005,0.0021,0.0022,0.0049,-0.0007,-0.0008,-0.0008,-0.0009,0,0.0121,0.0169,0.025,0.0331,0.0348,0.0387,0.0447,0.047,0.0461,0.0441,0.0419,0.0375,0.0343,0.0287,0.0185,0.0196,0.0126,0.0062,0.0057,0.0064,0.0012,-0.0012,-0.0015,-0.0014,-0.0014,-0.0013,-0.0013,0,0.0159,0.0235,0.0316,0.0342,0.0414,0.0464,0.0503,0.0515,0.0543,0.0514,0.0501,0.0444,0.0406,0.031,0.0188,0.0179,0.0058,0.0023,-0.0022,-0.0023,-0.0031,-0.0031,-0.0035,-0.0035,-0.0035,-0.0035,-0.0035,0,0.0204,0.0267,0.0347,0.0396,0.0492,0.0525,0.06,0.0609,0.0622,0.0637,0.0565,0.0538,0.0404,0.0318,0.0207,0.0087,0.0071,0.0003,-0.0033,-0.0018,-0.0016,-0.0034,-0.0033,-0.0037,-0.0036,-0.0036,-0.0036,0,0.0233,0.0278,0.0382,0.0483,0.0516,0.0591,0.0678,0.0714,0.0707,0.0719,0.0715,0.0616,0.0491,0.0364,0.0196,0.0118,-0.0004,-0.004,0.0005,-0.003,-0.0058,-0.0055,-0.0086,-0.0086,-0.0086,-0.0086,-0.0086,0,0.0253,0.031,0.0443,0.0496,0.055,0.065,0.0705,0.0753,0.0783,0.0754,0.0757,0.0658,0.057,0.0352,0.0205,0.0023,-0.0006,-0.0056,-0.0059,-0.0029,-0.0062,-0.0059,-0.0056,-0.0086,-0.0086,-0.0086,-0.0086,0,0.0296,0.0344,0.0424,0.0534,0.062,0.0714,0.08,0.0829,0.0858,0.0855,0.0786,0.0673,0.0534,0.0356,0.0223,0.0084,-0.0021,-0.0057,-0.0058,-0.0061,-0.003,-0.0061,-0.0058,-0.0086,-0.0086,-0.0086,-0.0086,0,0.0316,0.0371,0.0464,0.0564,0.067,0.0757,0.0798,0.0838,0.0879,0.0856,0.0823,0.0665,0.0581,0.0387,0.0251,0.0131,0.0099,0.0059,0.0051,0.0049,0.0102,0.0162,0.0149,0,0,0,0,0,0.0337,0.039,0.0476,0.0594,0.0701,0.0764,0.085,0.0875,0.0903,0.0867,0.0857,0.0724,0.0518,0.0415,0.0299,0.0247,0.0076,0.0108,0.0026,-0.0085,-0.0085,-0.0045,0,0,0,0,0,0,0.0344,0.0423,0.0473,0.0608,0.0681,0.08,0.0857,0.0866,0.0852,0.0844,0.0735,0.0697,0.0496,0.0583,0.0294,0.0257,0.019,0.0018,0.0015,-0.0085,-0.0085,-0.0085,-0.0044,0,0,0,0,0]}]]